Location: Herm
(49.4830°N, 2.4500°W)
Time: 21:25:17
(UTC+00:00)

NOAA 15 - Pass Details

Date: 29 October 2021
Orbit: 797 x 812 km, 98.7° (Epoch: 27 November)

Event Time Altitude Azimuth Distance (km) Brightness Sun altitude
Rises 20:17:32 0° 177° (S) 3,318 7.7 -24.0°
Reaches altitude 10° 20:19:55 10° 182° (S) 2,393 7.0 -24.4°
Maximum altitude 20:25:06 54° 260° (W) 990 5.3 -25.2°
Drops below altitude 10° 20:30:20 10° 337° (NNW) 2,413 7.4 -26.0°
Sets 20:32:45 0° 342° (NNW) 3,349 8.2 -26.4°
